HI1010 EINN-CYQX

Flight info

Callsign HI1010
Flight time N/A
Altitude 43000
Route BUNON DCT GIPER DCT ATSUR DCT SOMAX/M086F390 DCT 51N020W 51N030W 51N040W 50N050W DCT ELSIR/N0497F470 DCT AVSIV
Aircraft C750/M-SBDE3FGHRWXY/S

Departure

Time N/A
Airport Shannon Airport (EINN)

Arrival

Time 2026-05-04 09:56
Airport Gander International Airport (CYQX)
Time Latitude Longitude Altitude Speed Heading
2026-05-04 06:51 51.48732 -20.01437 43238 ft 495 kts 276°
2026-05-04 06:52 51.49009 -20.12502 43252 ft 495 kts 275°
2026-05-04 06:52 51.49597 -20.23554 43253 ft 499 kts 276°
2026-05-04 06:53 51.49927 -20.34723 43240 ft 503 kts 271°
2026-05-04 06:53 51.49786 -20.45917 43260 ft 505 kts 270°
2026-05-04 06:54 51.49658 -20.57309 43257 ft 507 kts 271°
2026-05-04 06:54 51.49518 -20.68568 43256 ft 509 kts 270°
2026-05-04 06:55 51.49357 -20.79947 43261 ft 510 kts 270°
2026-05-04 06:55 51.49197 -20.91353 43261 ft 511 kts 270°
2026-05-04 06:57 51.48418 -21.36981 43277 ft 511 kts 270°
2026-05-04 06:58 51.48197 -21.48304 43272 ft 511 kts 270°
2026-05-04 06:58 51.47965 -21.59695 43274 ft 511 kts 269°
2026-05-04 06:59 51.47721 -21.71083 43276 ft 509 kts 269°
2026-05-04 06:59 51.47469 -21.82394 43267 ft 505 kts 269°
2026-05-04 07:01 51.46518 -22.21232 43274 ft 494 kts 269°
2026-05-04 07:01 51.46373 -22.26737 43278 ft 493 kts 269°
2026-05-04 07:02 51.46075 -22.37728 43286 ft 492 kts 269°
2026-05-04 07:02 51.45767 -22.48706 43292 ft 492 kts 269°
2026-05-04 07:03 51.45450 -22.59668 43287 ft 493 kts 269°
2026-05-04 07:03 51.45122 -22.70648 43295 ft 493 kts 269°
2026-05-04 07:04 51.44782 -22.81653 43293 ft 494 kts 268°
2026-05-04 07:04 51.44433 -22.92655 43294 ft 495 kts 268°
2026-05-04 07:05 51.44072 -23.03682 43294 ft 495 kts 268°
2026-05-04 07:05 51.43703 -23.14655 43298 ft 496 kts 268°
2026-05-04 07:06 51.43126 -23.31209 43301 ft 496 kts 268°
2026-05-04 07:07 51.42795 -23.40411 43302 ft 496 kts 268°
2026-05-04 07:09 51.41108 -23.84550 43306 ft 496 kts 268°
2026-05-04 07:09 51.40664 -23.95491 43310 ft 495 kts 268°
2026-05-04 07:10 51.40207 -24.06504 43317 ft 495 kts 267°
2026-05-04 07:12 51.38273 -24.50563 43320 ft 496 kts 267°
2026-05-04 07:12 51.37763 -24.61586 43324 ft 496 kts 267°
2026-05-04 07:13 51.37247 -24.72521 43319 ft 496 kts 267°
2026-05-04 07:13 51.36716 -24.83540 43319 ft 496 kts 267°
2026-05-04 07:14 51.35346 -25.11041 43329 ft 496 kts 266°
2026-05-04 07:15 51.34780 -25.22051 43330 ft 496 kts 266°
2026-05-04 07:15 51.34203 -25.33054 43337 ft 496 kts 266°
2026-05-04 07:16 51.33621 -25.43963 43339 ft 496 kts 266°
2026-05-04 07:16 51.33024 -25.54956 43332 ft 496 kts 266°
2026-05-04 07:17 51.32417 -25.65935 43344 ft 496 kts 266°
2026-05-04 07:17 51.31845 -25.76116 43354 ft 499 kts 266°
2026-05-04 07:18 51.31211 -25.87229 43358 ft 503 kts 266°
2026-05-04 07:18 51.30566 -25.98334 43365 ft 505 kts 266°
2026-05-04 07:19 51.29903 -26.09557 43360 ft 507 kts 266°
2026-05-04 07:19 51.29228 -26.20806 43357 ft 509 kts 265°
2026-05-04 07:20 51.28541 -26.32075 43363 ft 509 kts 265°
2026-05-04 07:20 51.27846 -26.43292 43364 ft 510 kts 265°
2026-05-04 07:22 51.24937 -26.88450 43373 ft 512 kts 265°
2026-05-04 07:23 51.24180 -26.99783 43379 ft 512 kts 265°
2026-05-04 07:23 51.23418 -27.11009 43377 ft 512 kts 265°
2026-05-04 07:24 51.22639 -27.22329 43375 ft 512 kts 265°
2026-05-04 07:24 51.21849 -27.33638 43370 ft 512 kts 265°
2026-05-04 07:26 51.18590 -27.78728 43374 ft 512 kts 264°
2026-05-04 07:27 51.17749 -27.89972 43371 ft 509 kts 264°
2026-05-04 07:27 51.16904 -28.01128 43368 ft 504 kts 264°
2026-05-04 07:28 51.16057 -28.12177 43373 ft 500 kts 264°
2026-05-04 07:28 51.15207 -28.23117 43377 ft 497 kts 264°
2026-05-04 07:29 51.14349 -28.34029 43372 ft 496 kts 264°
2026-05-04 07:29 51.13483 -28.44908 43377 ft 495 kts 264°
2026-05-04 07:30 51.12607 -28.55780 43375 ft 495 kts 264°
2026-05-04 07:30 51.11722 -28.66640 43375 ft 495 kts 264°
2026-05-04 07:31 51.10831 -28.77448 43377 ft 496 kts 264°
2026-05-04 07:33 51.07399 -29.17952 43380 ft 498 kts 263°
2026-05-04 07:33 51.06450 -29.28856 43382 ft 498 kts 263°
2026-05-04 07:34 51.05491 -29.39754 43389 ft 498 kts 263°
2026-05-04 07:34 51.04528 -29.50589 43389 ft 498 kts 263°
2026-05-04 07:35 51.03548 -29.61491 43386 ft 498 kts 263°
2026-05-04 07:35 51.02559 -29.72372 43383 ft 498 kts 263°
2026-05-04 07:36 51.01559 -29.83260 43385 ft 498 kts 263°
2026-05-04 07:38 51.00917 -30.21334 43408 ft 498 kts 274°
2026-05-04 07:38 51.01098 -30.26850 43410 ft 500 kts 274°
2026-05-04 07:38 51.01573 -30.37917 43408 ft 503 kts 275°
2026-05-04 07:39 51.01991 -30.49026 43403 ft 505 kts 274°
2026-05-04 07:39 51.02422 -30.60177 43405 ft 506 kts 275°
2026-05-04 07:40 51.02834 -30.71295 43408 ft 507 kts 274°
2026-05-04 07:40 51.03238 -30.82505 43407 ft 508 kts 274°
2026-05-04 07:41 51.03635 -30.93722 43409 ft 508 kts 274°
2026-05-04 07:41 51.04016 -31.04883 43402 ft 508 kts 274°
2026-05-04 07:42 51.04391 -31.16125 43410 ft 509 kts 274°
2026-05-04 07:42 51.04753 -31.27356 43406 ft 509 kts 274°
2026-05-04 07:43 51.05106 -31.38607 43403 ft 509 kts 274°
2026-05-04 07:43 51.05445 -31.49768 43407 ft 508 kts 274°
2026-05-04 07:44 51.05776 -31.60994 43407 ft 508 kts 274°
2026-05-04 07:44 51.06096 -31.72236 43400 ft 508 kts 273°
2026-05-04 07:45 51.06405 -31.83458 43403 ft 508 kts 273°
2026-05-04 07:45 51.06703 -31.94691 43401 ft 508 kts 273°
2026-05-04 07:46 51.06988 -32.05839 43399 ft 508 kts 273°
2026-05-04 07:46 51.07265 -32.17063 43401 ft 506 kts 273°
2026-05-04 07:47 51.07529 -32.28238 43383 ft 502 kts 273°
2026-05-04 07:49 51.08462 -32.71951 43383 ft 490 kts 272°
2026-05-04 07:49 51.08634 -32.80949 43379 ft 489 kts 272°
2026-05-04 07:50 51.08830 -32.91717 43384 ft 488 kts 272°
2026-05-04 07:50 51.09017 -33.02528 43381 ft 488 kts 272°
2026-05-04 07:51 51.09194 -33.13339 43380 ft 489 kts 272°
2026-05-04 07:51 51.09362 -33.24173 43381 ft 489 kts 272°
2026-05-04 07:52 51.09519 -33.34947 43375 ft 489 kts 272°
2026-05-04 07:52 51.09666 -33.45801 43379 ft 490 kts 272°
2026-05-04 07:54 51.10156 -33.89103 43371 ft 489 kts 272°
2026-05-04 07:55 51.10254 -33.99932 43370 ft 489 kts 272°
2026-05-04 07:55 51.10341 -34.10767 43363 ft 489 kts 272°
2026-05-04 07:56 51.10418 -34.21585 43361 ft 488 kts 271°
2026-05-04 07:56 51.10485 -34.32320 43358 ft 488 kts 271°
2026-05-04 07:57 51.10543 -34.43101 43358 ft 487 kts 271°
2026-05-04 07:57 51.10590 -34.53881 43356 ft 487 kts 271°
2026-05-04 07:58 51.10627 -34.64651 43356 ft 486 kts 271°
2026-05-04 07:58 51.10655 -34.75419 43348 ft 486 kts 271°
2026-05-04 07:59 51.10672 -34.86167 43349 ft 485 kts 271°
2026-05-04 07:59 51.10680 -34.96895 43348 ft 485 kts 271°
2026-05-04 08:00 51.10678 -35.07548 43345 ft 484 kts 271°
2026-05-04 08:02 51.10572 -35.50366 43347 ft 482 kts 271°
2026-05-04 08:02 51.10522 -35.60983 43346 ft 482 kts 271°
2026-05-04 08:03 51.10461 -35.71679 43348 ft 485 kts 271°
2026-05-04 08:03 51.10391 -35.82455 43354 ft 488 kts 270°
2026-05-04 08:04 51.10310 -35.93297 43349 ft 492 kts 270°
2026-05-04 08:04 51.10218 -36.04143 43349 ft 495 kts 270°
2026-05-04 08:05 51.10115 -36.15127 43350 ft 497 kts 270°
2026-05-04 08:05 51.10002 -36.26140 43349 ft 498 kts 270°
2026-05-04 08:06 51.09878 -36.37167 43348 ft 499 kts 270°
2026-05-04 08:06 51.09744 -36.48188 43350 ft 499 kts 270°
2026-05-04 08:08 51.09119 -36.91315 43336 ft 498 kts 270°
2026-05-04 08:10 51.08327 -37.34885 43313 ft 486 kts 269°
2026-05-04 08:11 51.08218 -37.40244 43309 ft 484 kts 269°
2026-05-04 08:11 51.07879 -37.56260 43305 ft 482 kts 269°
2026-05-04 08:12 51.07641 -37.66913 43305 ft 481 kts 269°
2026-05-04 08:12 51.07395 -37.77490 43306 ft 480 kts 269°
2026-05-04 08:13 51.07138 -37.88121 43302 ft 481 kts 269°
2026-05-04 08:13 51.06872 -37.98748 43305 ft 481 kts 269°
2026-05-04 08:14 51.06595 -38.09403 43299 ft 482 kts 269°
2026-05-04 08:16 51.05395 -38.51914 43292 ft 482 kts 269°
2026-05-04 08:16 51.05069 -38.62575 43285 ft 482 kts 269°
2026-05-04 08:17 51.04734 -38.73230 43283 ft 482 kts 269°
2026-05-04 08:17 51.04389 -38.83893 43278 ft 482 kts 269°
2026-05-04 08:19 51.02916 -39.26444 43263 ft 482 kts 268°
2026-05-04 08:20 51.02525 -39.37036 43263 ft 482 kts 268°
2026-05-04 08:20 51.02122 -39.47679 43258 ft 483 kts 268°
2026-05-04 08:21 51.01710 -39.58316 43253 ft 483 kts 268°
2026-05-04 08:21 51.01289 -39.68935 43252 ft 483 kts 268°
2026-05-04 08:22 51.00857 -39.79582 43248 ft 483 kts 268°
2026-05-04 08:24 50.98757 -40.22076 43231 ft 483 kts 266°
2026-05-04 08:24 50.98132 -40.32713 43228 ft 483 kts 266°
2026-05-04 08:25 50.97512 -40.43342 43221 ft 483 kts 266°
2026-05-04 08:25 50.96872 -40.53970 43218 ft 483 kts 266°
2026-05-04 08:27 50.94241 -40.96336 43196 ft 482 kts 266°
2026-05-04 08:28 50.93559 -41.06922 43187 ft 482 kts 266°
2026-05-04 08:28 50.92867 -41.17504 43191 ft 482 kts 266°
2026-05-04 08:29 50.92168 -41.28051 43181 ft 481 kts 265°
2026-05-04 08:31 50.89280 -41.70157 43164 ft 480 kts 265°
2026-05-04 08:33 50.86244 -42.12160 43137 ft 479 kts 264°
2026-05-04 08:35 50.83069 -42.53956 43119 ft 479 kts 264°
2026-05-04 08:35 50.82250 -42.64432 43109 ft 479 kts 264°
2026-05-04 08:37 50.79447 -42.99349 43098 ft 481 kts 263°
2026-05-04 08:38 50.78589 -43.09783 43091 ft 482 kts 263°
2026-05-04 08:38 50.77709 -43.20366 43093 ft 483 kts 263°
2026-05-04 08:40 50.74102 -43.62546 43066 ft 486 kts 263°
2026-05-04 08:41 50.73171 -43.73143 43060 ft 487 kts 263°
2026-05-04 08:41 50.72231 -43.83725 43059 ft 488 kts 263°
2026-05-04 08:42 50.71279 -43.94329 43050 ft 488 kts 263°
2026-05-04 08:42 50.70317 -44.04941 43043 ft 489 kts 262°
2026-05-04 08:43 50.69343 -44.15567 43040 ft 489 kts 262°
2026-05-04 08:43 50.68360 -44.26183 43040 ft 490 kts 262°
2026-05-04 08:44 50.67362 -44.36857 43039 ft 493 kts 262°
2026-05-04 08:46 50.63240 -44.79825 43017 ft 498 kts 262°
2026-05-04 08:46 50.62180 -44.90611 43003 ft 498 kts 262°
2026-05-04 08:47 50.61108 -45.01397 43002 ft 498 kts 262°
2026-05-04 08:47 50.60027 -45.12179 42997 ft 498 kts 262°
2026-05-04 08:48 50.58944 -45.22874 42992 ft 497 kts 261°
2026-05-04 08:48 50.57847 -45.33614 42980 ft 497 kts 261°
2026-05-04 08:49 50.56737 -45.44366 42980 ft 496 kts 261°
2026-05-04 08:50 50.52806 -45.81689 42955 ft 493 kts 261°
2026-05-04 08:51 50.51662 -45.92328 42953 ft 492 kts 261°
2026-05-04 08:51 50.50514 -46.02913 42953 ft 491 kts 261°
2026-05-04 08:52 50.49355 -46.13505 42936 ft 490 kts 260°
2026-05-04 08:52 50.48189 -46.24063 42932 ft 490 kts 260°
2026-05-04 08:54 50.43457 -46.66020 42911 ft 488 kts 259°
2026-05-04 08:55 50.42250 -46.76503 42900 ft 488 kts 259°
2026-05-04 08:55 50.41035 -46.86966 42895 ft 487 kts 259°
2026-05-04 09:01 50.27737 -47.96296 42835 ft 486 kts 257°
2026-05-04 09:01 50.26428 -48.06595 42829 ft 486 kts 257°
2026-05-04 09:02 50.25102 -48.16944 42817 ft 485 kts 257°
2026-05-04 09:02 50.23769 -48.27279 42812 ft 485 kts 257°
2026-05-04 09:03 50.22421 -48.37641 42807 ft 485 kts 257°
2026-05-04 09:03 50.21071 -48.47950 42805 ft 485 kts 257°
2026-05-04 09:04 50.19718 -48.58202 42802 ft 485 kts 256°
2026-05-04 09:04 50.18348 -48.68513 42800 ft 485 kts 256°
2026-05-04 09:05 50.16966 -48.78836 42790 ft 486 kts 256°
2026-05-04 09:05 50.15575 -48.89157 42789 ft 486 kts 256°
2026-05-04 09:06 50.14176 -48.99463 42775 ft 486 kts 256°
2026-05-04 09:08 50.08481 -49.40674 42760 ft 488 kts 255°
2026-05-04 09:08 50.07029 -49.50992 42755 ft 488 kts 255°
2026-05-04 09:09 50.05567 -49.61321 42746 ft 488 kts 255°
2026-05-04 09:09 50.04095 -49.71647 42744 ft 489 kts 255°
2026-05-04 09:10 50.02612 -49.81975 42738 ft 489 kts 255°
2026-05-04 09:10 50.01131 -49.92225 42727 ft 489 kts 255°
2026-05-04 09:11 49.99427 -50.02452 42693 ft 486 kts 248°
2026-05-04 09:11 49.97051 -50.12257 42713 ft 485 kts 248°
2026-05-04 09:12 49.94704 -50.22098 42712 ft 486 kts 247°
2026-05-04 09:14 49.85131 -50.61382 42678 ft 487 kts 246°
2026-05-04 09:14 49.82713 -50.71194 42668 ft 487 kts 246°
2026-05-04 09:15 49.80297 -50.80968 42659 ft 487 kts 246°
2026-05-04 09:15 49.77861 -50.90773 42655 ft 487 kts 246°
2026-05-04 09:17 49.67267 -51.32952 41440 ft 468 kts 245°
2026-05-04 09:18 49.66081 -51.37625 40915 ft 456 kts 244°
2026-05-04 09:18 49.64945 -51.42082 40406 ft 446 kts 244°
2026-05-04 09:18 49.63820 -51.46489 39919 ft 436 kts 243°
2026-05-04 09:18 49.62719 -51.50802 39446 ft 427 kts 243°
2026-05-04 09:19 49.61641 -51.55022 38985 ft 419 kts 242°
2026-05-04 09:19 49.60586 -51.59134 38535 ft 410 kts 242°
2026-05-04 09:19 49.59545 -51.63184 38011 ft 403 kts 241°
2026-05-04 09:19 49.58516 -51.67180 37396 ft 400 kts 241°
2026-05-04 09:20 49.57456 -51.71250 36819 ft 419 kts 241°
2026-05-04 09:20 49.56346 -51.75520 36285 ft 438 kts 241°
2026-05-04 09:20 49.55205 -51.79959 35799 ft 453 kts 241°
2026-05-04 09:20 49.54027 -51.84533 35451 ft 463 kts 241°
2026-05-04 09:21 49.52818 -51.89186 35099 ft 471 kts 241°
2026-05-04 09:21 49.51588 -51.93895 34735 ft 477 kts 240°
2026-05-04 09:21 49.50353 -51.98636 34376 ft 482 kts 240°
2026-05-04 09:21 49.49101 -52.03443 34009 ft 484 kts 240°
2026-05-04 09:22 49.47847 -52.08235 33640 ft 484 kts 240°
2026-05-04 09:22 49.46581 -52.13050 33225 ft 484 kts 240°
2026-05-04 09:22 49.45332 -52.17797 32807 ft 484 kts 240°
2026-05-04 09:22 49.44063 -52.22615 32391 ft 485 kts 240°
2026-05-04 09:23 49.42795 -52.27415 31986 ft 485 kts 240°
2026-05-04 09:23 49.41524 -52.32216 31583 ft 485 kts 240°
2026-05-04 09:23 49.40253 -52.37006 31179 ft 485 kts 240°
2026-05-04 09:23 49.38975 -52.41817 30772 ft 486 kts 240°
2026-05-04 09:25 49.29978 -52.75358 27919 ft 484 kts 239°
2026-05-04 09:25 49.28485 -52.79946 27488 ft 479 kts 233°
2026-05-04 09:26 49.26810 -52.84328 27096 ft 476 kts 231°
2026-05-04 09:26 49.25107 -52.88622 26609 ft 461 kts 232°
2026-05-04 09:26 49.23625 -52.92881 26055 ft 441 kts 235°
2026-05-04 09:26 49.22303 -52.96991 25524 ft 422 kts 234°
2026-05-04 09:27 49.20933 -53.00900 24981 ft 411 kts 232°
2026-05-04 09:27 49.19540 -53.04630 24472 ft 407 kts 231°
2026-05-04 09:27 49.18174 -53.08441 23944 ft 405 kts 233°
2026-05-04 09:27 49.16867 -53.12250 23416 ft 403 kts 233°
2026-05-04 09:28 49.15549 -53.16016 22856 ft 399 kts 232°
2026-05-04 09:28 49.14225 -53.19694 22317 ft 394 kts 232°
2026-05-04 09:28 49.12913 -53.23357 21809 ft 389 kts 232°
2026-05-04 09:28 49.11634 -53.26976 21298 ft 385 kts 232°
2026-05-04 09:29 49.10362 -53.30562 20794 ft 380 kts 231°
2026-05-04 09:29 49.09104 -53.34076 20297 ft 375 kts 231°
2026-05-04 09:29 49.07854 -53.37563 19797 ft 373 kts 231°
2026-05-04 09:29 49.06611 -53.41037 19304 ft 372 kts 231°
2026-05-04 09:30 49.05374 -53.44492 18811 ft 371 kts 231°
2026-05-04 09:30 49.04140 -53.47933 18324 ft 369 kts 231°
2026-05-04 09:30 49.02908 -53.51364 17829 ft 367 kts 231°
2026-05-04 09:30 49.01701 -53.54717 17324 ft 364 kts 231°
2026-05-04 09:31 49.00493 -53.58078 16843 ft 359 kts 231°
2026-05-04 09:31 48.99285 -53.61427 16370 ft 355 kts 231°
2026-05-04 09:31 48.98114 -53.64666 15910 ft 351 kts 231°
2026-05-04 09:31 48.96943 -53.67905 15460 ft 347 kts 231°
2026-05-04 09:32 48.95779 -53.71120 14994 ft 344 kts 231°
2026-05-04 09:32 48.94625 -53.74301 14544 ft 341 kts 231°
2026-05-04 09:34 48.86740 -53.95950 11436 ft 329 kts 232°
2026-05-04 09:34 48.85724 -53.98726 11041 ft 329 kts 233°
2026-05-04 09:34 48.84699 -54.01529 10818 ft 322 kts 233°
2026-05-04 09:34 48.83898 -54.03733 10817 ft 309 kts 232°
2026-05-04 09:35 48.82838 -54.06608 10577 ft 320 kts 232°
2026-05-04 09:35 48.81703 -54.09639 10134 ft 339 kts 233°
2026-05-04 09:35 48.80542 -54.12799 9664 ft 355 kts 234°
2026-05-04 09:35 48.79311 -54.16180 9147 ft 367 kts 235°
2026-05-04 09:37 48.76545 -54.36390 7010 ft 278 kts 295°
2026-05-04 09:37 48.77889 -54.38647 7005 ft 294 kts 312°
2026-05-04 09:38 48.79514 -54.40616 7034 ft 304 kts 315°
2026-05-04 09:38 48.81155 -54.42633 7030 ft 301 kts 315°
2026-05-04 09:38 48.82780 -54.44638 6925 ft 301 kts 315°
2026-05-04 09:38 48.84390 -54.46621 6525 ft 299 kts 315°
2026-05-04 09:39 48.86014 -54.48609 6087 ft 293 kts 315°
2026-05-04 09:39 48.87559 -54.50506 5651 ft 286 kts 315°
2026-05-04 09:39 48.89093 -54.52399 5225 ft 279 kts 315°
2026-05-04 09:42 48.95874 -54.64652 3009 ft 243 kts 301°
2026-05-04 09:43 48.96898 -54.66638 2653 ft 237 kts 298°
2026-05-04 09:43 48.97498 -54.68839 2553 ft 219 kts 276°
2026-05-04 09:43 48.97946 -54.71093 2612 ft 224 kts 278°
2026-05-04 09:43 48.98429 -54.73351 2616 ft 222 kts 279°
2026-05-04 09:44 48.98899 -54.75539 2614 ft 215 kts 278°
2026-05-04 09:44 48.99343 -54.77694 2617 ft 217 kts 277°
2026-05-04 09:44 48.99792 -54.79909 2605 ft 217 kts 276°
2026-05-04 09:46 48.96514 -54.92368 2599 ft 161 kts 232°
2026-05-04 09:46 48.96094 -54.93953 2583 ft 165 kts 245°
2026-05-04 09:46 48.96044 -54.95744 2589 ft 177 kts 264°
2026-05-04 09:47 48.96436 -54.97583 2587 ft 191 kts 287°
2026-05-04 09:47 48.97321 -54.99178 2588 ft 205 kts 314°
2026-05-04 09:49 49.02509 -54.92613 2607 ft 154 kts 117°
2026-05-04 09:49 49.02199 -54.91065 2613 ft 152 kts 119°
2026-05-04 09:49 49.01874 -54.89530 2608 ft 151 kts 119°
2026-05-04 09:51 49.00082 -54.80982 2590 ft 116 kts 122°
2026-05-04 09:51 48.99842 -54.79840 2589 ft 111 kts 123°
2026-05-04 09:51 48.99612 -54.78747 2600 ft 106 kts 124°
2026-05-04 09:51 48.99384 -54.77691 2599 ft 104 kts 124°
2026-05-04 09:52 48.99164 -54.76651 2594 ft 104 kts 124°
2026-05-04 09:52 48.98940 -54.75593 2599 ft 103 kts 124°
2026-05-04 09:52 48.98722 -54.74564 2602 ft 104 kts 125°
2026-05-04 09:52 48.98495 -54.73499 2578 ft 106 kts 124°
2026-05-04 09:53 48.98251 -54.72378 2441 ft 115 kts 123°
2026-05-04 09:53 48.97998 -54.71194 2283 ft 119 kts 122°
2026-05-04 09:53 48.97739 -54.69983 2117 ft 120 kts 122°
2026-05-04 09:53 48.97485 -54.68778 1937 ft 119 kts 121°
2026-05-04 09:54 48.97232 -54.67582 1765 ft 118 kts 123°
2026-05-04 09:54 48.96994 -54.66434 1618 ft 110 kts 122°
2026-05-04 09:54 48.96837 -54.65705 1511 ft 109 kts 123°
2026-05-04 09:54 48.96597 -54.64593 1354 ft 111 kts 119°
2026-05-04 09:55 48.96375 -54.63476 1169 ft 109 kts 115°
2026-05-04 09:55 48.96075 -54.62041 993 ft 106 kts 117°
2026-05-04 09:55 48.95839 -54.60976 840 ft 107 kts 117°
2026-05-04 09:55 48.95690 -54.60256 774 ft 105 kts 116°
2026-05-04 09:56 48.95462 -54.59212 628 ft 105 kts 115°
2026-05-04 09:56 48.95238 -54.58163 492 ft 101 kts 116°
2026-05-04 09:56 48.95035 -54.57252 469 ft 80 kts 110°
2026-05-04 09:56 48.94894 -54.56575 458 ft 48 kts 105°
2026-05-04 09:57 48.94821 -54.56234 454 ft 28 kts 107°
2026-05-04 09:57 48.94771 -54.56031 453 ft 13 kts 137°
2026-05-04 09:57 48.94698 -54.56026 455 ft 9 kts 189°
2026-05-04 09:57 48.94636 -54.56042 457 ft 9 kts 191°
2026-05-04 09:58 48.94579 -54.56059 458 ft 3 kts 191°
2026-05-04 09:58 48.94549 -54.56072 458 ft 5 kts 213°
2026-05-04 09:58 48.94543 -54.56129 458 ft 6 kts 290°
2026-05-04 10:00 48.94465 -54.56917 461 ft 16 kts 332°
2026-05-04 10:00 48.94540 -54.56975 462 ft 7 kts 334°
2026-05-04 10:02 48.94733 -54.57153 464 ft 0 kts 288°
2026-05-04 10:04 48.94805 -54.57493 467 ft 10 kts 289°
2026-05-04 10:04 48.94796 -54.57591 468 ft 6 kts 248°
2026-05-04 10:04 48.94795 -54.57620 468 ft 1 kts 310°
2026-05-04 10:04 48.94808 -54.57617 464 ft 4 kts 18°
2026-05-04 10:05 48.94822 -54.57635 468 ft 2 kts 289°
2026-05-04 10:05 48.94817 -54.57643 464 ft 0 kts 208°
2026-05-04 10:05 48.94816 -54.57642 464 ft 0 kts 193°
2026-05-04 10:06 48.94809 -54.57645 466 ft 3 kts 197°
2026-05-04 10:06 48.94792 -54.57674 469 ft 5 kts 234°
2026-05-04 10:06 48.94766 -54.57721 467 ft 5 kts 212°
2026-05-04 10:08 48.94759 -54.57707 469 ft 0 kts 20°